Weather History for Russell, KS

Change the Weather History Date:

Sunday, February 10, 2013

  Actual Average Record
Temperature  
Mean Temperature 38 °F -  
Max Temperature 45 °F 45 °F 79 °F (1999)
Min Temperature 30 °F 18 °F -9 °F (2011)
Degree Days  
Heating Degree Days 28    
Moisture  
Dew Point 26 °F    
Average Humidity 66    
Maximum Humidity 90    
Minimum Humidity 50    
Precipitation  
Precipitation 0.00 in - - ()
Sea Level Pressure  
Sea Level Pressure 29.60 in    
Wind  
Wind Speed 27 mph (West)    
Max Wind Speed 36 mph    
Max Gust Speed 50 mph    
Visibility 10 miles    
Events      
Averages and records for this station are not official NWS values.
T = Trace of Precipitation, MM = Missing Value Source: NWS Daily Summary

Daily Weather History Graph

Daily Weather History Graph

Search for Another Location

Airport:

Trip Planner

Search our weather history database for the weather conditions in past years. The results will help you decide how hot, cold, wet, or windy it might be!

Date:

Astronomy

Feb. 10, 2013 Rise Set
Actual Time 7:32 AM CST 6:07 PM CST
Civil Twilight 7:04 AM CST 6:35 PM CST
Nautical Twilight 6:33 AM CST 7:06 PM CST
Astronomical Twilight 6:02 AM CST 7:37 PM CST
Moon 7:23 AM CST (2/10) 6:58 PM CST (2/10)
Length of Visible Light 11h 30m
Length of Day
10h 35m
New Moon, 0% of the Moon is Illuminated
Feb 10
New Moon
Feb 17
First Quarter
Feb 25
Full
Mar 4
Last Quarter
Mar 11
New

Hourly Weather History & Observations

Time (CST) Temp. Windchill Dew Point Humidity Pressure Visibility Wind Dir Wind Speed Gust Speed Precip Events Conditions
12:53 AM 43.0 °F 32.4 °F 39.9 °F 89% 29.43 in 10.0 mi South 31.1 mph 40.3 mph N/A   Overcast
1:53 AM 45.0 °F 35.1 °F 42.1 °F 90% 29.39 in 10.0 mi South 31.1 mph 42.6 mph N/A   Mostly Cloudy
2:12 AM 44.6 °F 34.7 °F 41.0 °F 87% 29.37 in 10.0 mi South 29.9 mph 39.1 mph N/A   Scattered Clouds
2:53 AM 43.0 °F 33.5 °F 39.0 °F 86% 29.36 in 10.0 mi South 24.2 mph 33.4 mph N/A   Clear
3:53 AM 39.0 °F 27.8 °F 28.9 °F 67% 29.37 in 10.0 mi SW 26.5 mph 33.4 mph N/A   Clear
4:53 AM 34.0 °F 21.5 °F 28.9 °F 82% 29.39 in 10.0 mi WSW 24.2 mph 29.9 mph N/A   Partly Cloudy
5:28 AM 35.6 °F 24.5 °F 28.4 °F 75% 29.38 in 10.0 mi WSW 20.7 mph 27.6 mph N/A   Overcast
5:37 AM 35.6 °F 24.0 °F 28.4 °F 75% 29.39 in 10.0 mi WSW 23.0 mph 33.4 mph N/A   Overcast
5:53 AM 35.1 °F 23.0 °F 28.0 °F 76% 29.41 in 10.0 mi WSW 24.2 mph 32.2 mph N/A   Overcast
6:19 AM 35.6 °F 23.0 °F 28.4 °F 75% 29.40 in 10.0 mi West 27.6 mph 35.7 mph N/A   Overcast
6:53 AM 35.1 °F 21.8 °F 25.0 °F 67% 29.44 in 10.0 mi WSW 29.9 mph 39.1 mph N/A   Overcast
7:15 AM 33.8 °F 19.6 °F 23.0 °F 65% 29.42 in 10.0 mi West 32.2 mph 44.9 mph N/A   Scattered Clouds
7:53 AM 32.0 °F 21.2 °F 23.0 °F 69% 29.47 in 10.0 mi West 16.1 mph 26.5 mph N/A   Partly Cloudy
8:41 AM 33.8 °F 20.8 °F 23.0 °F 65% 29.45 in 10.0 mi West 26.5 mph 40.3 mph N/A   Mostly Cloudy
8:53 AM 34.0 °F 20.3 °F 23.0 °F 64% 29.49 in 10.0 mi West 29.9 mph 40.3 mph N/A   Scattered Clouds
9:53 AM 37.0 °F 24.1 °F 23.0 °F 57% 29.52 in 10.0 mi West 32.2 mph 43.7 mph N/A   Scattered Clouds
10:00 AM 37.4 °F 24.0 °F 24.8 °F 60% 29.50 in 10.0 mi WNW 35.7 mph 48.3 mph N/A   Mostly Cloudy
10:53 AM 37.0 °F 24.5 °F 24.1 °F 59% 29.57 in 10.0 mi WNW 29.9 mph 42.6 mph N/A   Overcast
11:53 AM 41.0 °F 29.1 °F 24.1 °F 51% 29.59 in 10.0 mi WNW 34.5 mph 48.3 mph N/A   Mostly Cloudy
12:53 PM 39.9 °F 28.2 °F 24.1 °F 53% 29.62 in 10.0 mi WNW 31.1 mph 43.7 mph N/A   Overcast
1:53 PM 39.0 °F 26.4 °F 24.1 °F 55% 29.66 in 10.0 mi WNW 34.5 mph 42.6 mph N/A   Overcast
2:53 PM 39.9 °F 27.6 °F 24.1 °F 53% 29.70 in 10.0 mi WNW 34.5 mph 49.5 mph N/A   Overcast
3:53 PM 41.0 °F 29.7 °F 26.1 °F 55% 29.75 in 10.0 mi NW 31.1 mph 47.2 mph N/A   Overcast
4:53 PM 41.0 °F 30.5 °F 25.0 °F 53% 29.80 in 10.0 mi NW 26.5 mph 38.0 mph N/A   Mostly Cloudy
5:53 PM 39.9 °F 30.2 °F 23.0 °F 51% 29.84 in 10.0 mi NW 20.7 mph - N/A   Partly Cloudy
6:53 PM 39.0 °F 28.0 °F 21.9 °F 50% 29.89 in 10.0 mi NW 25.3 mph 35.7 mph N/A   Partly Cloudy
7:53 PM 35.1 °F 25.9 °F 21.9 °F 59% 29.96 in 10.0 mi WNW 13.8 mph - N/A   Clear
8:53 PM 33.1 °F 23.9 °F 21.0 °F 61% 30.00 in 10.0 mi WNW 12.7 mph - N/A   Clear
9:53 PM 32.0 °F 20.8 °F 21.0 °F 64% 30.03 in 10.0 mi WNW 17.3 mph - N/A   Clear
10:53 PM 30.9 °F 20.7 °F 19.9 °F 64% 30.06 in 10.0 mi WNW 13.8 mph - N/A   Clear
11:53 PM 30.0 °F 19.1 °F 19.9 °F 66% 30.06 in 10.0 mi NW 15.0 mph - N/A   Clear